TimeMDT,TemperatureF,Dew PointF,Humidity,Sea Level PressureIn,VisibilityMPH,Wind Direction,Wind SpeedMPH,Gust SpeedMPH,PrecipitationIn,Events,Conditions,WindDirDegrees,DateUTC
12:58 AM,44.6,29.5,55,29.93,10.0,WNW,19.6,-,N/A,,Clear,290,2013-10-11 06:58:00
1:58 AM,44.2,29.7,57,29.95,10.0,WNW,16.1,-,N/A,,Clear,300,2013-10-11 07:58:00
2:58 AM,40.6,28.8,63,29.99,10.0,WNW,10.4,-,N/A,,Scattered Clouds,290,2013-10-11 08:58:00
3:58 AM,39.7,28.6,64,30.00,10.0,West,4.6,-,N/A,,Clear,270,2013-10-11 09:58:00
4:58 AM,40.8,28.8,62,30.00,10.0,WNW,12.7,-,N/A,,Partly Cloudy,290,2013-10-11 10:58:00
5:58 AM,39.9,28.4,63,30.03,10.0,WNW,5.8,-,N/A,,Scattered Clouds,300,2013-10-11 11:58:00
6:58 AM,38.3,27.9,66,30.05,10.0,West,6.9,-,N/A,,Clear,280,2013-10-11 12:58:00
7:58 AM,35.8,27.3,71,30.08,10.0,NNW,6.9,-,N/A,,Clear,330,2013-10-11 13:58:00
8:58 AM,38.1,29.1,70,30.10,10.0,West,2.3,-,N/A,,Clear,280,2013-10-11 14:58:00
9:58 AM,45.5,29.5,54,30.11,10.0,WNW,9.2,-,N/A,,Clear,300,2013-10-11 15:58:00
10:58 AM,50.7,28.8,43,30.09,10.0,NW,13.8,-,N/A,,Clear,320,2013-10-11 16:58:00
11:58 AM,54.1,27.1,35,30.09,10.0,NW,12.7,-,N/A,,Clear,310,2013-10-11 17:58:00
12:58 PM,55.4,27.5,34,30.07,10.0,NW,15.0,19.6,N/A,,Partly Cloudy,310,2013-10-11 18:58:00
1:58 PM,57.7,26.8,31,30.06,10.0,WNW,13.8,-,N/A,,Partly Cloudy,300,2013-10-11 19:58:00
2:58 PM,57.7,24.4,28,30.04,10.0,NW,16.1,-,N/A,,Scattered Clouds,310,2013-10-11 20:58:00
3:01 PM,59.0,24.8,27,30.04,10.0,West,12.7,-,N/A,,Clear,270,2013-10-11 21:01:00
3:58 PM,58.6,24.3,27,30.04,10.0,NW,8.1,17.3,N/A,,Scattered Clouds,310,2013-10-11 21:58:00
4:58 PM,58.5,24.8,27,30.02,10.0,NW,11.5,-,N/A,,Partly Cloudy,320,2013-10-11 22:58:00
5:58 PM,57.4,25.5,29,30.03,10.0,North,8.1,-,N/A,,Clear,350,2013-10-11 23:58:00
6:58 PM,54.9,25.7,32,30.03,10.0,NNW,6.9,-,N/A,,Clear,340,2013-10-12 00:58:00
7:58 PM,50.4,25.9,39,30.05,10.0,NNW,4.6,-,N/A,,Clear,330,2013-10-12 01:58:00
8:58 PM,46.2,26.4,46,30.06,10.0,NNW,3.5,-,N/A,,Clear,330,2013-10-12 02:58:00
9:58 PM,44.4,26.6,50,30.04,10.0,Calm,Calm,-,N/A,,Clear,0,2013-10-12 03:58:00
10:58 PM,42.8,26.4,52,30.04,10.0,Variable,1.2,-,N/A,,Clear,0,2013-10-12 04:58:00
11:58 PM,41.4,27.9,59,30.04,10.0,South,5.8,-,N/A,,Clear,190,2013-10-12 05:58:00